Fort Wayne, IN

9:00 AM EST on January 21, 2018 (GMT -0500)
Fort Wayne International

Weather History for KFWA - December, 2012

Change the Weather History Date:

Saturday, December 1, 2012

  Actual Average Record
Temperature  
Mean Temperature 45 °F 34 °F  
Max Temperature 61 °F 42 °F 67 °F (1970)
Min Temperature 29 °F 27 °F 8 °F (1979)
Degree Days  
Heating Degree Days 20 31  
Month to date heating degree days 20 31  
Since 1 July heating degree days 1341 1248  
Cooling Degree Days 0 0  
Month to date cooling degree days 0 0  
Year to date cooling degree days 1108 809  
Moisture  
Dew Point 38 °F    
Average Humidity 82    
Maximum Humidity 100    
Minimum Humidity 64    
Precipitation  
Precipitation T in 0.10 in 0.79 in (2006)
Month to date precipitation T 0.10  
Year to date precipitation 26.38 35.67  
Snow  
Snow 0.00 in 0.20 in 3.70 in (1974)
Month to date snowfall 0.0 0.2  
Since 1 July snowfall 0.6 2.3  
Snow Depth 0.00 in    
Sea Level Pressure  
Sea Level Pressure 30.17 in    
Wind  
Wind Speed 9 mph (SE)    
Max Wind Speed 21 mph    
Max Gust Speed 25 mph    
Visibility 6 miles    
Events Fog , Rain    
T = Trace of Precipitation, MM = Missing Value Source: NWS Daily Summary

Daily Weather History Graph

Daily Weather History Graph

Search for Another Location

Airport or City:

Trip Planner

Search our weather history database for the weather conditions in past years. The results will help you decide how hot, cold, wet, or windy it might be!

Date:

Astronomy

Dec. 01, 2012 Rise Set
Actual Time 7:46 AM EST 5:13 PM EST
Civil Twilight 7:16 AM EST 5:43 PM EST
Nautical Twilight 6:41 AM EST 6:17 PM EST
Astronomical Twilight 6:08 AM EST 6:51 PM EST
Moon 8:02 PM EST (12/1) 9:58 AM EST (12/1)
Length of Visible Light 10h 27m
Length of Day
9h 26m
Waning Gibbous, 92% of the Moon is Illuminated
Dec 1
Waning Gibbous
Dec 6
Last Quarter
Dec 13
New
Dec 20
First Quarter
Dec 28
Full

Hourly Weather History & Observations

Time (EST) Temp. Windchill Dew Point Humidity Pressure Visibility Wind Dir Wind Speed Gust Speed Precip Events Conditions
12:54 AM 34.0 °F 28.8 °F 30.0 °F 85% 30.19 in 10.0 mi ENE 5.8 mph - N/A   Partly Cloudy
1:54 AM 33.1 °F 28.7 °F 30.9 °F 92% 30.20 in 10.0 mi East 4.6 mph - N/A   Partly Cloudy
2:54 AM 33.1 °F - 30.9 °F 92% 30.21 in 10.0 mi Calm Calm - N/A   Scattered Clouds
3:54 AM 32.0 °F 25.6 °F 30.0 °F 92% 30.22 in 9.0 mi ENE 6.9 mph - N/A   Scattered Clouds
4:54 AM 30.0 °F 25.2 °F 28.9 °F 96% 30.22 in 6.0 mi ENE 4.6 mph - N/A   Partly Cloudy
5:29 AM 28.4 °F 23.3 °F 28.4 °F 100% 30.21 in 2.0 mi ENE 4.6 mph - N/A   Scattered Clouds
5:34 AM 28.4 °F 22.2 °F 28.4 °F 100% 30.21 in 1.5 mi East 5.8 mph - N/A   Mostly Cloudy
5:45 AM 28.4 °F 22.2 °F 28.4 °F 100% 30.21 in 0.8 mi ENE 5.8 mph - N/A   Mist
5:54 AM 28.9 °F 25.2 °F 28.9 °F 100% 30.23 in 0.8 mi ENE 3.5 mph - N/A   Scattered Clouds
6:54 AM 28.9 °F 23.9 °F 28.9 °F 100% 30.23 in 0.8 mi East 4.6 mph - N/A   Mostly Cloudy
7:38 AM 28.4 °F 22.2 °F 28.4 °F 100% 30.21 in 0.8 mi East 5.8 mph - N/A   Scattered Clouds
7:54 AM 28.9 °F 22.8 °F 28.9 °F 100% 30.24 in 0.5 mi East 5.8 mph - N/A Fog Light Freezing Fog
8:20 AM 30.2 °F 25.4 °F 28.4 °F 93% 30.21 in 0.5 mi East 4.6 mph - N/A Fog Light Freezing Fog
8:42 AM 30.2 °F 26.7 °F 30.2 °F 100% 30.22 in 1.5 mi East 3.5 mph - N/A   Scattered Clouds
8:54 AM 30.9 °F 27.5 °F 30.9 °F 100% 30.24 in 1.8 mi East 3.5 mph - N/A   Scattered Clouds
9:03 AM 32.0 °F 28.7 °F 32.0 °F 100% 30.22 in 2.0 mi East 3.5 mph - N/A   Scattered Clouds
9:35 AM 33.8 °F 29.6 °F 33.8 °F 100% 30.21 in 3.0 mi East 4.6 mph - N/A   Scattered Clouds
9:54 AM 35.1 °F 32.2 °F 34.0 °F 96% 30.24 in 4.0 mi East 3.5 mph - N/A   Scattered Clouds
10:54 AM 42.1 °F 40.2 °F 37.9 °F 85% 30.23 in 6.0 mi East 3.5 mph - N/A   Partly Cloudy
11:54 AM 54.0 °F - 45.0 °F 72% 30.18 in 7.0 mi South 8.1 mph - N/A   Partly Cloudy
12:51 PM 57.2 °F - 46.4 °F 67% 30.14 in 8.0 mi SSW 16.1 mph - N/A   Mostly Cloudy
12:54 PM 57.9 °F - 48.0 °F 70% 30.16 in 8.0 mi SSW 13.8 mph 21.9 mph N/A   Mostly Cloudy
1:24 PM 57.2 °F - 48.2 °F 72% 30.12 in 7.0 mi SSW 11.5 mph - N/A   Scattered Clouds
1:54 PM 59.0 °F - 48.9 °F 69% 30.13 in 8.0 mi South 12.7 mph - N/A   Mostly Cloudy
2:54 PM 60.1 °F - 48.9 °F 67% 30.11 in 9.0 mi South 15.0 mph - N/A   Mostly Cloudy
3:54 PM 61.0 °F - 48.9 °F 64% 30.11 in 10.0 mi South 9.2 mph - N/A   Mostly Cloudy
4:54 PM 59.0 °F - 50.0 °F 72% 30.10 in 10.0 mi South 11.5 mph - N/A   Overcast
5:54 PM 55.9 °F - 48.0 °F 75% 30.10 in 10.0 mi South 11.5 mph - N/A   Overcast
6:54 PM 55.9 °F - 46.0 °F 69% 30.09 in 10.0 mi South 13.8 mph - N/A   Overcast
7:54 PM 55.9 °F - 46.0 °F 69% 30.08 in 10.0 mi South 17.3 mph 24.2 mph N/A   Overcast
8:54 PM 55.9 °F - 46.0 °F 69% 30.08 in 10.0 mi South 13.8 mph - N/A   Overcast
9:54 PM 55.9 °F - 46.0 °F 69% 30.07 in 10.0 mi South 15.0 mph - N/A   Overcast
10:54 PM 55.9 °F - 46.0 °F 69% 30.06 in 10.0 mi South 13.8 mph 21.9 mph N/A   Overcast
11:54 PM 55.9 °F - 46.9 °F 72% 30.05 in 9.0 mi SSW 13.8 mph - 0.00 in Rain Light Rain